sat.trackr.live / text

‹ back to catalog

STARLINK-31936

NORAD 59875 · 2024-098T

PAYLOAD ACTIVE UNKNOWN

§ Identity

Operator
Country
US
Launch date
2024-05-24
Launch site
AFETR
Launch vehicle
Mass (kg)
RCS (m²)

Purposes: comms

External: N2YO · Heavens-Above · Gunter

§ Orbital elements

Epoch: 2026-09-21T13:35:55.838400Z

Period
94.27 min
Inclination
43.0022°
Eccentricity
0.0001443
Mean motion
15.27567136 rev/d
Perigee alt
482.1 km
Apogee alt
484.1 km
Semi-major
6,861.2 km
B*
-4.7055e-5
RAAN
219.4537°
Arg perigee
267.3167°
Mean anomaly
92.7519°
Rev number
13,216

§ Raw data

STARLINK-319361 59875U 24098T   26264.56661850 -.00001556  00000+0 -47055-4 0  99972 59875  43.0022 219.4537 0001443 267.3167  92.7519 15.27567136132161

JSON: /api/v1/satellites/59875 · /tle

For live sub-satellite position, see the globe view (requires WebGL).

§ Visibility from observer

Set your observer location to see the next 7 days of passes ≥ 10°. The values pass through the URL so the page stays shareable.

No JS? Fill the form by hand. The geolocation button needs JavaScript.